Volver al catálogo

DELTA 1 DEB

ActivoSSO
NORAD 7060·DEBRIS·🇺🇸 United States

Lanzado Nov 6, 1973 desde Vandenberg Space Force Base

Loading…

Próximos Pases (próximas 24 horas)

TLE

ActualizadoSource: Space-Track

Época: Sep 14, 2026, 00:26 UTC

1 07060U 73086BC  26257.01827765 -.00000010  00000-0  25396-3 0  9995
2 07060 102.1390 281.1912 0022990 301.3252  85.7321 12.44947988400357

Sigue DELTA 1 DEB en tiempo real con AllMySat

Download on the App Store